Tracking 25648 objects as of 17-May-2022
HD Live streaming from Space Station
objects crossing your sky now

COSMOS 2251 DEB

Track COSMOS 2251 DEB now!
10-day predictions


NORAD ID: 37282
Int'l Code: 1993-036BHW
Perigee: 635.8 km
Apogee: 741.5 km
Inclination: 73.9 °
Period: 98.4 minutes
Semi major axis: 7059 km
RCS: 0.0097 m2 (small)
Launch date: June 16, 1993
Source: Commonwealth of Independent States (former USSR) (CIS)
Launch site: PLESETSK MISSILE AND SPACE COMPLEX (PKMTR)

Note: This is SATELLITE DEBRIS
aabbcc
Your satellite tracking list
Your tracking list is empty




NASA's NSSDC Master Catalog

Two Line Element Set (TLE):
1 37282U 93036BHW 22136.87786272  .00008311  00000-0  15399-2 0  9996
2 37282  73.8916 189.6778 0074814 225.5385 133.9649 14.63620062681547
Source of the keplerian elements: AFSPC